This demonstration page uses our WeatherBlox Daily Observations layout. Learn more.

Left ArrowRight Arrow

36.19886, -115.1175

Hourly Observations for December 21, 2021

Temp ( °F °C ) Dew Point ( °F °C ) Humidity (%) Winds ( mph kmh ) Pressure ( in mb ) Visibility ( mi km ) Precip ( " mm )
12:53 am 00:53 Clear 46 7.8 25 -3.9 44 44 Calm 30.29 1026 10 16 0.00 0.00
1:53 am 01:53 Clear 47 8.3 24 -4.4 41 41 W 7 11 30.29 1026 10 16 0.00 0.00
2:53 am 02:53 Clear 47 8.3 24 -4.4 41 41 NW 3 6 30.29 1026 10 16 0.00 0.00
3:53 am 03:53 Clear 46 7.8 25 -3.9 44 44 W 6 9 30.28 1025 10 16 0.00 0.00
4:53 am 04:53 Clear 44 6.7 26 -3.3 49 49 WNW 3 6 30.28 1025 10 16 0.00 0.00
5:53 am 05:53 Clear 46 7.8 25 -3.9 44 44 NNE 3 6 30.27 1025 10 16 0.00 0.00
6:53 am 06:53 Sunny 46 7.8 25 -3.9 44 44 WNW 3 6 30.27 1025 10 16 0.00 0.00
7:53 am 07:53 Sunny 46 7.8 25 -3.9 44 44 W 3 6 30.30 1026 10 16 0.00 0.00
8:53 am 08:53 Sunny 48 8.9 24 -4.4 39 39 NNW 8 13 30.30 1026 10 16 0.00 0.00
9:53 am 09:53 Sunny 50 10 24 -4.4 36 36 N 7 11 30.30 1026 10 16 0.00 0.00
10:53 am 10:53 Sunny 50 10 25 -3.9 38 38 WNW 5 7 30.30 1026 10 16 0.00 0.00
11:53 am 11:53 Sunny 51 10.6 25 -3.9 36 36 NW 6 9 30.27 1025 10 16 0.00 0.00
12:53 pm 12:53 Sunny 53 11.7 25 -3.9 34 34 WNW 3 6 30.23 1024 10 16 0.00 0.00
1:53 pm 13:53 Sunny 55 12.8 25 -3.9 31 31 WNW 3 6 30.20 1023 10 16 0.00 0.00
2:53 pm 14:53 Sunny 55 12.8 26 -3.3 33 33 E 3 6 30.19 1023 10 16 0.00 0.00
3:53 pm 15:53 Sunny 54 12.2 26 -3.3 34 34 E 3 6 30.19 1022 10 16 0.00 0.00
4:53 pm 16:53 Clear 51 10.6 26 -3.3 38 38 Calm 30.20 1023 10 16 0.00 0.00
5:53 pm 17:53 Clear 48 8.9 27 -2.8 44 44 Calm 30.21 1023 10 16 0.00 0.00
6:53 pm 18:53 Clear 47 8.3 27 -2.8 46 46 NW 6 9 30.22 1023 10 16 0.00 0.00
7:53 pm 19:53 Clear 44 6.7 28 -2.2 53 53 WNW 3 6 30.24 1024 10 16 0.00 0.00
8:53 pm 20:53 Clear 42 5.6 28 -2.2 58 58 NW 6 9 30.23 1024 10 16 0.00 0.00
9:53 pm 21:53 Clear 41 5 27 -2.8 57 57 NW 3 6 30.23 1024 10 16 0.00 0.00
10:53 pm 22:53 Clear 39 3.9 27 -2.8 62 62 NNW 3 6 30.23 1024 10 16 0.00 0.00
11:53 pm 23:53 Clear 38 3.3 26 -3.3 62 62 W 7 11 30.23 1024 10 16 0.00 0.00

Powered by AerisWeather